GW1539 Weather Reports


time (UTC)temp
C
wind
direction
speed
KPH
gust
KPH
rain 1hr
cm
rain 24hr
cm
rain mn
cm
humidity
%
barometer
mb
20260831004532 12 309 0.0 0.0 0.00 0.00 0.00 94 1015.4
20260831001532 12 309 0.0 0.0 0.00 0.00 0.00 93 1015.6
20260830234544 13 309 0.0 0.0 0.00 0.00 0.00 93 1015.8
20260830231536 13 309 0.0 0.0 0.00 0.00 0.00 92 1015.7
20260830230035 13 309 0.0 0.0 0.00 0.00 0.00 92 1015.8
20260830223041 13 309 0.0 0.0 0.00 0.00 0.00 91 1016.0
20260830220112 14 309 0.0 0.0 0.00 0.00 0.00 91 1015.9
20260830213045 14 309 0.0 0.0 0.00 0.00 0.00 90 1015.9
20260830210035 15 309 0.0 0.0 0.00 0.00 0.00 89 1015.6
20260830204528 15 309 0.0 0.0 0.00 0.00 0.00 89 1015.8
20260830201537 15 309 0.0 0.0 0.00 0.00 0.00 87 1015.6
20260830200027 15 309 0.0 0.0 0.00 0.00 0.00 87 1015.6
20260830193040 16 309 0.0 0.0 0.00 0.00 0.00 85 1015.5
20260830190056 16 309 0.0 0.0 0.00 0.00 0.00 83 1015.5
20260830183105 17 309 0.0 0.0 0.00 0.00 0.00 81 1015.1
20260830180053 18 309 0.0 0.0 0.00 0.00 0.00 79 1014.6
20260830173052 19 309 0.0 1.6 0.00 0.00 0.00 75 1014.3
20260830170051 21 309 0.0 1.6 0.00 0.00 0.00 70 1014.1
20260830163050 24 309 0.0 3.2 0.00 0.00 0.00 59 1014.2
20260830160048 25 309 1.6 4.8 0.00 0.00 0.00 57 1014.3
20260830153804 25 328 0.0 3.2 0.00 0.00 0.00 56 1014.4
20260830150046 25 302 0.0 4.8 0.00 0.00 0.00 55 1014.5
20260830143045 25 289 0.0 4.8 0.00 0.00 0.00 55 1014.4
20260830133043 25 344 0.0 8.0 0.00 0.00 0.00 57 1014.7
20260830130052 25 282 0.0 6.4 0.00 0.00 0.00 56 1014.8
20260830123041 25 252 3.2 12.9 0.00 0.00 0.00 58 1015.0
20260830120041 25 294 3.2 8.0 0.00 0.00 0.00 59 1015.0
20260830113038 24 235 1.6 9.7 0.00 0.00 0.00 61 1015.0
20260830110041 23 260 1.6 6.4 0.00 0.00 0.00 58 1015.1
20260830103045 23 241 0.0 11.3 0.00 0.00 0.00 61 1015.4
20260830100040 22 250 0.0 3.2 0.00 0.00 0.00 71 1015.7
20260830093046 21 294 0.0 3.2 0.00 0.00 0.00 72 1016.0
20260830091537 21 294 1.6 4.8 0.00 0.00 0.00 70 1016.0
20260830090032 20 240 0.0 4.8 0.00 0.00 0.00 71 1016.1
20260830083031 19 239 0.0 3.2 0.00 0.00 0.00 78 1016.4
20260830080041 18 239 0.0 4.8 0.00 0.00 0.00 82 1016.2
20260830073049 16 238 0.0 1.6 0.00 0.00 0.00 93 1016.0
20260830070031 15 238 0.0 0.0 0.00 0.00 0.00 96 1016.0
20260830063103 14 238 0.0 0.0 0.00 0.00 0.00 97 1015.9
20260830060052 12 238 0.0 0.0 0.00 0.00 0.00 96 1015.8
20260830053038 12 238 0.0 0.0 0.00 0.00 0.00 96 1015.7
20260830050047 12 238 0.0 0.0 0.00 0.00 0.00 95 1015.4
20260830043043 12 238 0.0 0.0 0.00 0.00 0.00 96 1015.3
20260830041546 12 238 0.0 0.0 0.00 0.00 0.00 95 1015.2
20260830040044 12 238 0.0 0.0 0.00 0.00 0.00 96 1015.1
20260830034534 12 238 0.0 0.0 0.00 0.00 0.00 96 1015.1
20260830031542 12 238 0.0 0.0 0.00 0.00 0.00 95 1015.2
20260830030034 12 238 0.0 0.0 0.00 0.00 0.00 95 1015.2
20260830023041 13 238 0.0 0.0 0.00 0.00 0.00 95 1015.3
20260830021537 13 238 0.0 0.0 0.00 0.00 0.00 95 1015.3
20260830020037 13 238 0.0 0.0 0.00 0.00 0.00 95 1015.4
20260830013037 13 238 0.0 0.0 0.00 0.00 0.00 95 1015.4
20260830010047 13 238 0.0 0.0 0.00 0.00 0.00 94 1015.5